Flag for Germany Weather past 2 weeks in Ilmenau, Thuringia, Germany

Now
48 °F

Passing clouds.


Feels Like: 46 °F
Forecast: 45 / 55 °F
Wind: 5 mph from Southwest

Location: Erfurt-Bindersleben

Current Time: May 29, 2015 at 2:50:55 AM

Latest Report: May 29, 2015 at 2:20 AM


Visibility: N/A

Pressure: 29.95 "Hg

Humidity: 87%

Dew point: 45 °F

Location of IlmenauLocation

Historic Weather in Ilmenau — Graph

°F

Ilmenau temperature yesterday

Maximum temperature yesterday: 68 °F (at 3:20 PM)
Minimum temperature yesterday: 39 °F (at 1:50 AM)
Average temperature yesterday: 54 °F

Past Weeks' High & Low Weather Summary

 TemperatureHumidityPressure
High70 °F (May 18, 4:50 PM)100% (May 21, 6:20 AM)30.33 "Hg (May 21, 6:20 AM)
Low36 °F (May 22, 2:20 AM)27% (May 19, 2:50 PM)29.65 "Hg (May 19, 1:20 AM)
Average53 °F64%30.04 "Hg
* Reported May 14 1:20 AM — May 29 1:20 AM, Ilmenau, Weather by CustomWeather, © 2015

Note: Actual official high and low records may vary slightly from our data, if they occured in-between our weather recording intervals... More about our weather records

Advertising

Ilmenau weather history for previous 24 hours

 ConditionsComfort  
Time TempWeatherWind HumidityBarometerVisibility
1:20 AM
Fri, May 29
50 °FPassing clouds.3 mph88%29.95 "HgN/A
12:50 AM50 °FPassing clouds.3 mph88%29.95 "HgN/A
11:50 PM
Thu, May 28
50 °FPartly cloudy.3 mph88%29.95 "HgN/A
11:20 PM52 °FPartly cloudy.2 mph82%29.95 "HgN/A
10:50 PM52 °FPassing clouds.7 mph82%29.95 "HgN/A
10:20 PM52 °FPassing clouds.12 mph82%29.95 "HgN/A
9:50 PM55 °FBroken clouds.8 mph82%29.92 "HgN/A
9:20 PM54 °FSunny.8 mph88%29.92 "Hg10 mi
8:50 PM54 °FSprinkles. Broken clouds.8 mph88%29.92 "HgN/A
8:20 PM55 °FSprinkles. Broken clouds.12 mph77%29.92 "HgN/A
7:50 PM61 °FScattered showers. Partly sunny.9 mph55%29.89 "HgN/A
7:20 PM61 °FLight rain. Clear.10 mph55%29.92 "HgN/A
6:50 PM63 °FLight rain. Clear.10 mph49%29.92 "HgN/A
6:20 PM63 °FLight rain. Clear.9 mph49%29.92 "HgN/A
5:50 PM63 °FLight rain. Clear.12 mph49%29.92 "HgN/A
5:20 PM64 °FSunny.15 mph43%29.92 "Hg10 mi
4:50 PM64 °FSunny.14 mph43%29.92 "Hg10 mi
4:20 PM64 °FSunny.16 mph43%29.92 "Hg10 mi
3:50 PM66 °FSunny.16 mph40%29.92 "Hg10 mi
3:20 PM68 °FSunny.15 mph38%29.92 "Hg10 mi
2:50 PM66 °FSunny.15 mph46%29.95 "Hg10 mi
2:20 PM64 °FScattered clouds.15 mph46%29.95 "HgN/A
1:50 PM64 °FScattered clouds.13 mph46%29.95 "HgN/A
1:20 PM63 °FScattered clouds.15 mph49%29.98 "HgN/A
12:50 PM63 °FPartly sunny.13 mph52%29.98 "HgN/A
12:20 PM59 °FPartly sunny.13 mph51%29.98 "HgN/A
11:50 AM59 °FPartly sunny.15 mph51%30.01 "HgN/A
11:20 AM57 °FSunny.14 mph55%30.01 "Hg10 mi
10:50 AM59 °FSunny.16 mph51%30.01 "Hg10 mi
10:20 AM57 °FSunny.15 mph51%30.01 "Hg10 mi
9:50 AM57 °FSunny.12 mph51%30.04 "Hg10 mi
9:20 AM55 °FSunny.12 mph51%30.04 "Hg10 mi
8:50 AM52 °FSunny.9 mph62%30.04 "Hg10 mi
8:20 AM50 °FSunny.9 mph62%30.04 "Hg10 mi
7:50 AM50 °FSunny.8 mph67%30.04 "Hg10 mi
7:20 AM46 °FSunny.9 mph71%30.04 "Hg10 mi
6:50 AM45 °FSunny.9 mph76%30.04 "Hg10 mi
6:20 AM43 °FSunny.8 mph76%30.07 "Hg10 mi
5:20 AM41 °FClear.10 mph81%30.07 "Hg10 mi
4:50 AM41 °FClear.10 mph81%30.07 "Hg10 mi
4:20 AM41 °FClear.10 mph81%30.07 "Hg10 mi
3:50 AM41 °FClear.9 mph81%30.09 "Hg10 mi
3:20 AM39 °FClear.9 mph93%30.09 "Hg10 mi
2:50 AM39 °FClear.8 mph87%30.09 "Hg10 mi
2:20 AM39 °FClear.8 mph87%30.09 "Hg10 mi
Weather by CustomWeather, © 2015

See weather overviewHow to use our weather pages